Onweer radar Meer informatie blitzortung!


Regen radar Meer informatie rain snow radar


Bezoek onze andere website:

Template documentation
and downloads

And another site



15 daagse weersverwachting Dilbeek (BE)

  • Overzicht
  • Per uur
  • 15 dagen
  • Extra
  • Vergelijk
  • Kaarten
  • Dagkaart
  • Meer »
  • Info
  • Statistieken
  • Directe link
    Temp 6h Neerslag Wind  
 06:12     21:28    Daglengte: 15:16 Morgen
02:00
14°
1.6 mm
3
08:00
14°
 
4
14:00
18°
1.1 mm
4
20:00
17°
13.9 mm
3
 06:13     21:26    Daglengte: 15:13 Maandag 02 Aug
02:00
14°
 
1
08:00
14°
5.8 mm
2
14:00
18°
13.5 mm
2
20:00
18°
13.7 mm
2
 06:15     21:24    Daglengte: 15:09 Dinsdag 03 Aug
02:00
14°
 
1
08:00
13°
 
2
14:00
20°
 
2
20:00
21°
 
3
Locatie info
Region: Flandern
Latitude: 50.8460°N
Longitude: 4.2625°E
84 masl
Postcode: 1700
Temp/Neerslag /Baro Onweer/Dauwpunt
    Temp Baro 1h Neerslag Dauwpunt Wind UV Bewolking  
 06:12     21:28    Daglengte: 15:16 Morgen
00:00
15°
1010.6 hPa 1.6 mm
48%
12.9°
3
Windvlaag: 3 m/s
15%
01:00
14°
1010.6 hPa
14%
12.6°
3
Windvlaag: 3.7 m/s
12%
02:00
14°
1010.5 hPa
14%
12.2°
3
Windvlaag: 4.3 m/s
4%
03:00
13°
1010.3 hPa
14%
11.7°
3
Windvlaag: 4.9 m/s
3%
04:00
13°
1010.0 hPa
14%
11.7°
3
Windvlaag: 5 m/s
8%
05:00
13°
1009.6 hPa
14%
11.8°
3
Windvlaag: 4.5 m/s
58%
06:00
13°
1009.8 hPa
14%
12.3°
3
Windvlaag: 4.5 m/s
68%
07:00
13°
1009.8 hPa
14%
12.6°
3
Windvlaag: 4.7 m/s
72%
08:00
14°
1009.9 hPa
14%
13.1°
4
Windvlaag: 5 m/s
77%
09:00
15°
1010.0 hPa
16%
13.6°
4
Windvlaag: 4.9 m/s
71%
10:00
16°
1010.2 hPa
17%
13.7°
4
Windvlaag: 5.1 m/s
61%
11:00
17°
1010.4 hPa 0.4 mm
77%
13.0°
4
Windvlaag: 4.8 m/s
40%
12:00
18°
1010.5 hPa
82%
11.8°
4
Windvlaag: 4.5 m/s
56%
13:00
18°
1010.4 hPa
82%
11.4°
4
Windvlaag: 4.2 m/s
64%
14:00
18°
1010.3 hPa 0.7 mm
82%
14.5°
4
Windvlaag: 4.3 m/s
51%
15:00
19°
1010.4 hPa 0.8 mm
82%
15.4°
4
Windvlaag: 2.8 m/s
56%
16:00
19°
1010.5 hPa 1.4 mm
82%
15.4°
4
Windvlaag: 2.1 m/s
61%
17:00
19°
1010.4 hPa 1.6 mm
82%
15.9°
4
Windvlaag: 1.8 m/s
71% warningclass
18:00
18°
1010.6 hPa 3.4 mm
78%
15.4°
4
Windvlaag: 1.1 m/s
67%
19:00
17°
1010.6 hPa 3.6 mm
79%
14.7°
3
Windvlaag: 0.5 m/s
72%
20:00
17°
1010.9 hPa 3.2 mm
76%
13.3°
3
Windvlaag: -0.2 m/s
53%
21:00
16°
1011.1 hPa
76%
13.4°
2
Windvlaag: 0.1 m/s
29%
22:00
15°
1011.8 hPa
78%
13.8°
2
Windvlaag: 0.2 m/s
34%
23:00
15°
1012.1 hPa
72%
13.8°
2
Windvlaag: -1 m/s
42%
 06:13     21:26    Daglengte: 15:13 Maandag 02 Aug
00:00
15°
1012.3 hPa
28%
13.6°
2
Windvlaag: -1.1 m/s
44%
01:00
14°
1012.3 hPa
22%
13.5°
1
Windvlaag: -0.4 m/s
23%
02:00
14°
1012.3 hPa
75%
13.2°
1
Windvlaag: 0.9 m/s
57%
03:00
14°
1012.2 hPa
82%
13.2°
1
Windvlaag: 0.8 m/s
74%
04:00
14°
1012.2 hPa
82%
13.3°
1
Windvlaag: 0.8 m/s
70%
05:00
14°
1012.1 hPa
78%
13.5°
1
Windvlaag: 0.7 m/s
66%
06:00
14°
1012.4 hPa
78%
13.3°
1
Windvlaag: 0.7 m/s
64%
07:00
14°
1012.8 hPa 2.9 mm
81%
13.3°
1
Windvlaag: -0.5 m/s
69%
08:00
14°
1013.1 hPa 2.9 mm
81%
13.5°
2
Windvlaag: -1 m/s
69%
09:00
15°
1013.4 hPa
82%
13.4°
2
Windvlaag: -1.3 m/s
58%
10:00
15°
1013.7 hPa 3.1 mm
82%
13.4°
2
Windvlaag: -1.4 m/s
58%
11:00
16°
1014.0 hPa 3.5 mm
82%
13.3°
2
Windvlaag: -0.5 m/s
63%
12:00
16°
1014.2 hPa 3.7 mm
82%
13.0°
2
Windvlaag: -0.3 m/s
79%
13:00
17°
1014.2 hPa 3.3 mm
82%
11.7°
2
Windvlaag: 0.1 m/s
65%
14:00
18°
1014.2 hPa
82%
11.2°
2
Windvlaag: 0.8 m/s
66%
15:00
18°
1014.0 hPa
82%
11.4°
2
Windvlaag: 2.5 m/s
61%
16:00
19°
1013.9 hPa
82%
11.5°
2
Windvlaag: 2.7 m/s
57%
17:00
18°
1013.3 hPa 6.7 mm
100%
13.8°
2
Windvlaag: 1.9 m/s
60%
18:00
18°
1013.2 hPa 7.0 mm
100%
11.6°
2
Windvlaag: 0.9 m/s
65%
19:00
18°
1013.0 hPa
100%
11.5°
2
Windvlaag: 0.6 m/s
72%
20:00
18°
1013.1 hPa
35%
10.3°
2
Windvlaag: -1.3 m/s
77%
21:00
17°
1013.4 hPa
30%
10.2°
2
Windvlaag: -1.5 m/s
87%
22:00
16°
1013.8 hPa
26%
9.6°
2
Windvlaag: -0.9 m/s
91%
23:00
15°
1013.9 hPa
21%
9.0°
2
Windvlaag: -1.2 m/s
87%
 06:15     21:24    Daglengte: 15:09 Dinsdag 03 Aug
00:00
15°
1014.2 hPa
21%
8.3°
2
Windvlaag: -1.7 m/s
93%
01:00
14°
1014.2 hPa
21%
8.2°
2
Windvlaag: -1.7 m/s
92%
02:00
14°
1014.0 hPa
21%
8.0°
1
Windvlaag: -1.5 m/s
87%
03:00
13°
1013.8 hPa
21%
7.8°
1
Windvlaag: -1.5 m/s
86%
04:00
13°
1013.5 hPa
21%
8.3°
2
Windvlaag: -1.5 m/s
93%
05:00
13°
1013.5 hPa
21%
7.9°
2
Windvlaag: -1.6 m/s
90%
06:00
13°
1013.5 hPa
22%
7.9°
2
Windvlaag: -1.3 m/s
84%
07:00
13°
1013.6 hPa
21%
7.9°
2
Windvlaag: -1.3 m/s
85%
08:00
13°
1013.7 hPa
22%
8.2°
2
Windvlaag: -1.2 m/s
91%
09:00
14°
1014.0 hPa
22%
8.7°
2
Windvlaag: -1.1 m/s
76%
10:00
15°
1014.0 hPa
22%
9.1°
2
Windvlaag: -2 m/s
78%
11:00
16°
1013.9 hPa
22%
9.3°
2
Windvlaag: -2.5 m/s
68%
12:00
17°
1013.8 hPa
21%
8.4°
2
Windvlaag: -3.2 m/s
62%
13:00
19°
1013.5 hPa
22%
7.5°
2
Windvlaag: -3.7 m/s
50%
14:00
20°
1013.1 hPa
28%
7.1°
2
Windvlaag: -3.8 m/s
25%
15:00
21°
1012.6 hPa
28%
7.8°
2
Windvlaag: 2.6 m/s
53%
16:00
21°
1012.5 hPa
34%
8.1°
2
Windvlaag: 3.1 m/s
55%
17:00
21°
1012.3 hPa
29%
7.5°
2
Windvlaag: 3.1 m/s
16%
18:00
22°
1012.0 hPa
21%
7.3°
2
Windvlaag: 2.9 m/s
16%
19:00
21°
1011.9 hPa
21%
7.1°
2
Windvlaag: 3.1 m/s
13%
20:00
21°
1012.3 hPa
21%
8.2°
3
Windvlaag: 3.6 m/s
17%
21:00
20°
1011.8 hPa 19.1 mm
100%
9.9°
4
Windvlaag: 4.9 m/s
73%
22:00
19°
1012.1 hPa 19.1 mm
100%
10.5°
4
Windvlaag: 5.3 m/s
62%
23:00
18°
1012.3 hPa 19.1 mm
100%
10.4°
3
Windvlaag: 6.6 m/s
62%
Temp/Neerslag /Baro Onweer/Dauwpunt
    Temp Baro Neerslag Dauwpunt Wind Bewolking  
 06:12     21:28    Daglengte: 15:16 Morgen
02:00
14°
1010.5 hPa 1.6 mm 12.2°
3
4%
05:00
13°
1009.6 hPa   11.8°
3
58%
08:00
14°
1009.9 hPa   13.1°
4
77%
11:00
17°
1010.4 hPa 0.4 mm 13.0°
4
40%
14:00
18°
1010.3 hPa 0.7 mm 14.5°
4
51%
17:00
19°
1010.4 hPa 3.8 mm 15.9°
4
71% warningclass
20:00
17°
1010.9 hPa 10.2 mm 13.3°
3
53%
23:00
15°
1012.1 hPa   13.8°
2
42%
 06:13     21:26    Daglengte: 15:13 Maandag 02 Aug
02:00
14°
1012.3 hPa   13.2°
1
57%
05:00
14°
1012.1 hPa   13.5°
1
66%
08:00
14°
1013.1 hPa 5.8 mm 13.5°
2
69%
11:00
16°
1014.0 hPa 6.5 mm 13.3°
2
63%
14:00
18°
1014.2 hPa 7.0 mm 11.2°
2
66%
17:00
18°
1013.3 hPa 6.7 mm 13.8°
2
60%
20:00
18°
1013.1 hPa 7.0 mm 10.3°
2
77%
23:00
15°
1013.9 hPa   9.0°
2
87%
 06:15     21:24    Daglengte: 15:09 Dinsdag 03 Aug
02:00
14°
1014.0 hPa   8.0°
1
87%
05:00
13°
1013.5 hPa   7.9°
2
90%
08:00
13°
1013.7 hPa   8.2°
2
91%
11:00
16°
1013.9 hPa   9.3°
2
68%
14:00
20°
1013.1 hPa   7.1°
2
25%
17:00
21°
1012.3 hPa   7.5°
2
16%
20:00
21°
1012.3 hPa   8.2°
3
17%
23:00
18°
1012.3 hPa 57.2 mm 10.4°
3
62%
 06:16     21:23    Daglengte: 15:07 Woensdag 04 Aug
02:00
16°
1012.7 hPa 57.2 mm 10.4°
3
53%
05:00
13°
1012.2 hPa 19.7 mm 12.1°
1
1%
08:00
13°
1013.0 hPa 20.2 mm 12.5°
1
1%
11:00
15°
1013.8 hPa 20.4 mm 12.8°
2
1%
14:00
17°
1014.0 hPa 21.0 mm 12.2°
2
1%
17:00
16°
1014.6 hPa 21.1 mm 12.4°
1
1%
20:00
16°
1014.5 hPa 21.8 mm 12.4°
1
1%
23:00
13°
1015.3 hPa 22.0 mm 11.8°
0
1%
 06:18     21:21    Daglengte: 15:03 Donderdag 05 Aug
02:00
12°
1014.9 hPa 22.0 mm 11.5°
2
0%
05:00
11°
1013.7 hPa 22.0 mm 11.0°
2
0%
08:00
12°
1012.6 hPa 22.0 mm 10.9°
3
1%
11:00
15°
1011.3 hPa 22.0 mm 11.2°
4
1%
14:00
17°
1009.4 hPa 22.3 mm 12.5°
5
1%
17:00
14°
1007.5 hPa 23.9 mm 13.0°
5
1%
20:00
13°
1005.4 hPa 25.2 mm 12.0°
6
1%
23:00
14°
1004.1 hPa 25.4 mm 13.0°
6
1%
 06:19     21:19    Daglengte: 15:00 Vrijdag 06 Aug
02:00
14°
1003.2 hPa 26.0 mm 13.6°
5
1%
05:00
14°
1002.4 hPa 26.1 mm 12.8°
6
1%
08:00
14°
1001.0 hPa 30.1 mm 13.3°
7
1%
11:00
15°
1001.6 hPa 35.3 mm 13.7°
8
1%
14:00
16°
1002.5 hPa 35.8 mm 14.5°
8
1%
17:00
17°
1003.1 hPa 37.0 mm 15.1°
7
1%
20:00
17°
1005.0 hPa 38.1 mm 14.4°
8
1%
23:00
14°
1007.0 hPa 38.1 mm 12.6°
6
0%
 06:21     21:18    Daglengte: 14:57 Zaterdag 07 Aug
02:00
13°
1008.2 hPa 38.1 mm 12.3°
6
0%
05:00
13°
1008.7 hPa 38.1 mm 12.2°
5
1%
08:00
14°
1009.2 hPa 38.1 mm 12.4°
5
1%
11:00
17°
1009.6 hPa 38.1 mm 11.7°
6
1%
14:00
20°
1009.2 hPa 38.2 mm 11.3°
5
1%
17:00
20°
1008.8 hPa 38.2 mm 13.3°
4
1%
20:00
18°
1008.3 hPa 38.2 mm 13.2°
3
1%
23:00
17°
1008.4 hPa   12.9°
4
1%
 06:22     21:16    Daglengte: 14:54 Zondag 08 Aug
02:00
17°
1008.0 hPa 76.9 mm 14.1°
4
1%
08:00
16°
1007.4 hPa 90.9 mm 15.5°
5
1%
14:00
21°
1009.6 hPa 104.0 mm 12.6°
9
0%
20:00
16°
1011.3 hPa 107.6 mm 13.2°
9
0%
 06:24     21:14    Daglengte: 14:50 Maandag 09 Aug
02:00
15°
1015.1 hPa 110.3 mm 11.9°
9
0%
08:00
15°
1017.6 hPa 110.5 mm 12.2°
7
1%
14:00
18°
1020.4 hPa 112.6 mm 13.9°
6
1%
20:00
17°
1022.5 hPa 115.7 mm 12.1°
4
1%
 06:25     21:12    Daglengte: 14:47 Dinsdag 10 Aug
02:00
13°
1024.0 hPa 115.9 mm 11.9°
4
1%
08:00
13°
1024.1 hPa 115.9 mm 11.9°
4
1%
14:00
19°
1024.1 hPa 116.4 mm 14.4°
4
1%
20:00
20°
1020.1 hPa 0.3 mm 13.1°
3
48%
 06:27     21:10    Daglengte: 14:43 Woensdag 11 Aug
02:00
14°
1021.2 hPa 0.1 mm 11.2°
1
37%
08:00
15°
1021.0 hPa   11.8°
1
39%
14:00
22°
1020.5 hPa 0.4 mm 12.2°
2
45%
20:00
20°
1020.1 hPa 0.4 mm 12.8°
2
47%
 06:28     21:08    Daglengte: 14:40 Donderdag 12 Aug
02:00
15°
1020.8 hPa 0.1 mm 11.5°
0
38%
08:00
15°
1020.4 hPa 0.2 mm 12.0°
0
48%
14:00
22°
1019.9 hPa 0.3 mm 12.8°
1
55%
20:00
21°
1019.5 hPa 0.4 mm 13.6°
2
48%
 06:30     21:06    Daglengte: 14:36 Vrijdag 13 Aug
02:00
16°
1020.2 hPa   12.3°
0
46%
08:00
16°
1020.1 hPa 0.2 mm 12.6°
1
54%
14:00
23°
1019.9 hPa 0.4 mm 13.0°
1
51%
20:00
21°
1019.1 hPa 0.2 mm 13.5°
1
47%
 06:31     21:05    Daglengte: 14:34 Zaterdag 14 Aug
02:00
16°
1019.7 hPa 0.4 mm 12.7°
1
54%
08:00
16°
1019.5 hPa 0.3 mm 12.8°
1
58%
14:00
23°
1019.0 hPa 0.5 mm 13.4°
1
57%
20:00
21°
1018.3 hPa 0.5 mm 14.0°
2
47%
 06:33     21:03    Daglengte: 14:30 Zondag 15 Aug
02:00
16°
1018.9 hPa 0.2 mm 12.6°
1
42%
08:00
16°
1018.5 hPa 0.2 mm 13.0°
1
44%
14:00
22°
1018.2 hPa 0.3 mm 14.0°
2
59%
20:00
20°
1017.8 hPa 0.5 mm 13.7°
2
53%
  CAPE Lifted Index Hail Supercell Tornado SRH 3km CL BTM PRES CL TOP PRES Swiss DWD icon SMHI TS
 06:12     21:28    Daglengte: 15:16 Morgen
00:00 100 J/kg -0.7 K 0 % 0 % 0 % 0 m²/s² 0 0 0.62 2
01:00 0 J/kg 0.0 K 0 % 0 % 0 % 0 m²/s² 0 0 1.26 2
02:00 0 J/kg 0.9 K 0 % 0 % 0 % 0 m²/s² 0 0 2.1 1
03:00 0 J/kg 2.0 K 0 % 0 % 0 % 0 m²/s² 0 0 3.32 1
04:00 0 J/kg 2.8 K 0 % 0 % 0 % 0 m²/s² 0 0 4.06 2
05:00 0 J/kg 2.8 K 0 % 0 % 0 % 0 m²/s² 0 0 4.06 2
06:00 1 J/kg 2.2 K 0 % 0 % 0 % 0 m²/s² 0 0 3.67 3
07:00 0 J/kg 1.3 K 0 % 0 % 0 % 0 m²/s² 0 0 2.77 3
08:00 2 J/kg 0.7 K 0 % 0 % 0 % 0 m²/s² 0 0 2.23 3
09:00 2 J/kg 0.8 K 0 % 0 % 0 % 0 m²/s² 0 0 2.33 3
10:00 2 J/kg 0.5 K 0 % 0 % 0 % 0 m²/s² 0 0 2.15 3
11:00 44 J/kg 0.0 K 0 % 0 % 0 % 0 m²/s² 0 0 1.47 3
12:00 392 J/kg -1.2 K 0 % 0 % 0 % 0 m²/s² 0 0 0.27 3
13:00 661 J/kg -2.5 K 0 % 0 % 0 % 0 m²/s² 0 0 -1.09 3
14:00 579 J/kg -2.1 K 0 % 0 % 0 % 0 m²/s² 0 0 -0.9 80
15:00 390 J/kg -1.9 K 0 % 0 % 0 % 0 m²/s² 0 0 -1.72 80
16:00 580 J/kg -2.3 K 0 % 0 % 0 % 0 m²/s² 0 0 -1.34 80
17:00 555 J/kg -2.6 K 0 % 0 % 0 % 0 m²/s² 0 0 -2.36 80
18:00 66 J/kg -0.3 K 0 % 0 % 0 % 0 m²/s² 0 0 -0.18 80
19:00 422 J/kg -1.5 K 0 % 0 % 0 % 0 m²/s² 0 0 -0.66 80
20:00 129 J/kg 0.1 K 0 % 0 % 0 % 0 m²/s² 0 0 1.12 3
21:00 132 J/kg 0.0 K 0 % 0 % 0 % 0 m²/s² 0 0 0.96 3
22:00 106 J/kg 0.3 K 0 % 0 % 0 % 0 m²/s² 0 0 1.17 3
23:00 107 J/kg 0.4 K 0 % 0 % 0 % 0 m²/s² 0 0 1.03 80
 06:13     21:26    Daglengte: 15:13 Maandag 02 Aug
00:00 104 J/kg 0.7 K 0 % 0 % 0 % 0 m²/s² 0 0 1.72 3
01:00 104 J/kg 0.8 K 0 % 0 % 0 % 0 m²/s² 0 0 2.12 3
02:00 63 J/kg 1.3 K 0 % 0 % 0 % 0 m²/s² 0 0 2.11 3
03:00 8 J/kg 1.7 K 0 % 0 % 0 % 0 m²/s² 0 0 2.51 80
04:00 0 J/kg 1.9 K 0 % 0 % 0 % 0 m²/s² 0 0 2.77 80
05:00 1 J/kg 2.0 K 0 % 0 % 0 % 0 m²/s² 0 0 2.78 80
06:00 0 J/kg 1.7 K 0 % 0 % 0 % 0 m²/s² 0 0 2.33 80
07:00 2 J/kg 1.5 K 0 % 0 % 0 % 0 m²/s² 0 0 2.58 80
08:00 2 J/kg 1.3 K 0 % 0 % 0 % 0 m²/s² 0 0 1.9 3
09:00 2 J/kg 1.9 K 0 % 0 % 0 % 0 m²/s² 0 0 2.77 3
10:00 3 J/kg 2.1 K 0 % 0 % 0 % 0 m²/s² 0 0 3.69 80
11:00 2 J/kg 1.5 K 0 % 0 % 0 % 0 m²/s² 0 0 3.51 80
12:00 1 J/kg 1.5 K 0 % 0 % 0 % 0 m²/s² 0 0 3.09 80
13:00 69 J/kg 1.4 K 0 % 0 % 0 % 0 m²/s² 0 0 3.56 80
14:00 214 J/kg 0.0 K 0 % 0 % 0 % 0 m²/s² 0 0 1.89 3
15:00 373 J/kg -0.8 K 0 % 0 % 0 % 0 m²/s² 0 0 0.58 3
16:00 489 J/kg -1.3 K 0 % 0 % 0 % 0 m²/s² 0 0 0.08 3
17:00 500 J/kg -1.3 K 0 % 0 % 0 % 0 m²/s² 0 0 0.41 80
18:00 412 J/kg -1.2 K 0 % 0 % 0 % 0 m²/s² 0 0 0.69 80
19:00 217 J/kg -0.6 K 0 % 0 % 0 % 0 m²/s² 0 0 0.48 3
20:00 142 J/kg 0.1 K 0 % 0 % 0 % 0 m²/s² 0 0 0.82 3
21:00 24 J/kg 1.2 K 0 % 0 % 0 % 0 m²/s² 0 0 3.36 3
22:00 0 J/kg 1.4 K 0 % 0 % 0 % 0 m²/s² 0 0 3.92 3
23:00 0 J/kg 1.2 K 0 % 0 % 0 % 0 m²/s² 0 0 2.97 3
 06:15     21:24    Daglengte: 15:09 Dinsdag 03 Aug
00:00 0 J/kg 1.3 K 0 % 0 % 0 % 0 m²/s² 0 0 1.51 3
01:00 0 J/kg 1.2 K 0 % 0 % 0 % 0 m²/s² 0 0 1.44 3
02:00 0 J/kg 1.0 K 0 % 0 % 0 % 0 m²/s² 0 0 1.48 3
03:00 0 J/kg 0.7 K 0 % 0 % 0 % 0 m²/s² 0 0 2.29 3
04:00 0 J/kg 0.7 K 0 % 0 % 0 % 0 m²/s² 0 0 2.23 3
05:00 0 J/kg 0.2 K 0 % 0 % 0 % 0 m²/s² 0 0 1.13 3
06:00 0 J/kg 0.2 K 0 % 0 % 0 % 0 m²/s² 0 0 0.89 2
07:00 0 J/kg 0.8 K 0 % 0 % 0 % 0 m²/s² 0 0 1.67 3
08:00 0 J/kg 1.9 K 0 % 0 % 0 % 0 m²/s² 0 0 2.8 3
09:00 0 J/kg 2.1 K 0 % 0 % 0 % 0 m²/s² 0 0 3.21 3
10:00 0 J/kg 3.3 K 0 % 0 % 0 % 0 m²/s² 0 0 4.56 3
11:00 0 J/kg 4.0 K 0 % 0 % 0 % 0 m²/s² 0 0 5.32 3
12:00 0 J/kg 4.8 K 0 % 0 % 0 % 0 m²/s² 0 0 6.12 3
13:00 0 J/kg 5.2 K 0 % 0 % 0 % 0 m²/s² 0 0 6.52 3
14:00 0 J/kg 5.1 K 0 % 0 % 0 % 0 m²/s² 0 0 6.21 3
15:00 0 J/kg 4.2 K 0 % 0 % 0 % 0 m²/s² 0 0 5.52 3
16:00 0 J/kg 3.4 K 0 % 0 % 0 % 0 m²/s² 0 0 4.57 3
17:00 4 J/kg 3.7 K 0 % 0 % 0 % 0 m²/s² 0 0 4.87 2
18:00 9 J/kg 4.1 K 0 % 0 % 0 % 0 m²/s² 0 0 5.27 3
19:00 8 J/kg 4.5 K 0 % 0 % 0 % 0 m²/s² 0 0 6.06 2
20:00 35 J/kg 4.1 K 0 % 0 % 0 % 0 m²/s² 0 0 5.75 2
21:00 60 J/kg 3.5 K 0 % 0 % 0 % 0 m²/s² 0 0 5
22:00 31 J/kg 4.0 K 0 % 0 % 0 % 0 m²/s² 0 0 5.65
23:00 6 J/kg 4.1 K 0 % 0 % 0 % 0 m²/s² 0 0 5.96
Temp Baro Wind Neerslag
  EWN Forecast EWN WRFDA DWD ICON FMI HIRLAM MET Norway GFS
 06:12     21:28    Daglengte: 15:16 Morgen
02:00 13.7° 1010.5 hPa 3.0 m/s 1.6 mm 13.4° 1009.6 hPa 2.8 m/s 3.7 mm 13.8° 1010.7 hPa 2.7 m/s 1.8 mm 13.3° 1010.1 hPa 2.9 m/s 0.0 mm 11.9° 1010.4 hPa 3.3 m/s
05:00 12.5° 1009.6 hPa 3.1 m/s 0.0 mm 11.6° 1008.5 hPa 3.1 m/s 3.7 mm 12.6° 1009.9 hPa 3.0 m/s 0.0 mm 12.6° 1009.1 hPa 3.0 m/s 0.0 mm 11.1° 1009.9 hPa 3.8 m/s
08:00 13.6° 1009.9 hPa 4.0 m/s 0.0 mm 12.0° 1008.4 hPa 3.2 m/s 3.7 mm 13.9° 1010.1 hPa 3.9 m/s 0.0 mm 13.9° 1009.2 hPa 4.4 m/s 0.0 mm 12.9° 1010.1 hPa 4.3 m/s
11:00 16.7° 1010.4 hPa 3.9 m/s 0.4 mm 14.4° 1009.2 hPa 3.7 m/s 3.7 mm 17.2° 1010.6 hPa 3.9 m/s 0.1 mm 17.9° 1009.5 hPa 4.0 m/s 0.0 mm 18.2° 1010.5 hPa 5.1 m/s
14:00 18.3° 1010.3 hPa 4.1 m/s 0.7 mm 20.7° 1008.7 hPa 4.6 m/s 3.7 mm 18.0° 1011.0 hPa 4.1 m/s 0.7 mm 19.0° 1009.4 hPa 4.0 m/s 0.0 mm 19.2° 1010.3 hPa 5.8 m/s
17:00 18.6° 1010.4 hPa 3.8 m/s 3.8 mm 17.7° 1008.8 hPa 6.3 m/s 12.3 mm 18.8° 1010.8 hPa 4.2 m/s 1.2 mm 18.9° 1009.2 hPa 3.4 m/s 0.0 mm 19.3° 1010.8 hPa 5.4 m/s
20:00 17.0° 1010.9 hPa 3.2 m/s 10.2 mm 18.8° 1009.2 hPa 3.4 m/s 40.3 mm 16.8° 1011.2 hPa 3.3 m/s 2.7 mm 17.1° 1010.1 hPa 3.5 m/s 0.0 mm 17.0° 1011.3 hPa 3.6 m/s
23:00 14.9° 1012.1 hPa 1.7 m/s 0.0 mm 15.4° 1010.6 hPa 1.9 m/s 41.3 mm 15.2° 1012.2 hPa 1.4 m/s 0.4 mm 14.9° 1012.0 hPa 1.6 m/s 0.0 mm 13.5° 1012.9 hPa 1.9 m/s
 06:13     21:26    Daglengte: 15:13 Maandag 02 Aug
02:00 14.1° 1012.3 hPa 1.5 m/s 0.0 mm 13.4° 1010.8 hPa 1.4 m/s 41.3 mm 14.4° 1012.4 hPa 1.7 m/s 0.1 mm 14.6° 1011.9 hPa 1.6 m/s 0.0 mm 12.6° 1013.4 hPa 0.9 m/s
05:00 14.1° 1012.1 hPa 1.2 m/s 0.0 mm 12.1° 1010.8 hPa 1.6 m/s 41.3 mm 14.5° 1012.1 hPa 2.3 m/s 1.5 mm 14.8° 1012.1 hPa 1.0 m/s 0.0 mm 11.8° 1013.7 hPa 0.7 m/s
08:00 14.3° 1013.1 hPa 1.7 m/s 5.8 mm 12.4° 1011.7 hPa 2.9 m/s 41.4 mm 14.6° 1013.0 hPa 2.7 m/s 0.7 mm 15.0° 1013.2 hPa 0.6 m/s 0.0 mm 13.4° 1014.5 hPa 0.7 m/s
11:00 15.6° 1014.0 hPa 2.1 m/s 6.5 mm 14.7° 1012.3 hPa 3.3 m/s 41.6 mm 16.1° 1013.5 hPa 2.6 m/s 1.0 mm 16.1° 1014.3 hPa 1.6 m/s 0.0 mm 15.6° 1014.6 hPa 1.1 m/s
14:00 17.7° 1014.2 hPa 1.9 m/s 7.0 mm 18.1° 1012.0 hPa 2.2 m/s 41.9 mm 18.0° 1013.7 hPa 2.1 m/s 1.4 mm 19.3° 1014.5 hPa 1.9 m/s 0.0 mm 18.3° 1014.1 hPa 1.8 m/s
17:00 18.5° 1013.3 hPa 2.0 m/s 6.7 mm 19.1° 1011.8 hPa 2.7 m/s 53.9 mm 18.6° 1013.5 hPa 2.1 m/s 0.8 mm 19.2° 1013.5 hPa 1.4 m/s
20:00 17.6° 1013.1 hPa 1.9 m/s 7.0 mm 19.5° 1012.0 hPa 2.3 m/s 57.1 mm 17.4° 1013.0 hPa 1.9 m/s 1.0 mm 18.6° 1013.1 hPa 0.5 m/s
23:00 15.4° 1013.9 hPa 1.9 m/s 0.0 mm 15.9° 1012.6 hPa 2.6 m/s 57.2 mm 15.5° 1013.9 hPa 0.8 m/s 0.0 mm 14.4° 1013.5 hPa 0.4 m/s
 06:15     21:24    Daglengte: 15:09 Dinsdag 03 Aug
02:00 13.8° 1014.0 hPa 1.4 m/s 0.0 mm 14.9° 1012.8 hPa 1.2 m/s 57.2 mm 13.6° 1014.1 hPa 1.0 m/s 0.0 mm 13.5° 1012.8 hPa 0.5 m/s
05:00 12.8° 1013.5 hPa 1.8 m/s 0.0 mm 14.0° 1011.9 hPa 1.7 m/s 57.2 mm 12.3° 1013.7 hPa 1.2 m/s 0.0 mm 13.1° 1012.2 hPa 1.9 m/s
08:00 13.0° 1013.7 hPa 1.9 m/s 0.0 mm 13.8° 1012.0 hPa 1.8 m/s 57.2 mm 13.0° 1014.0 hPa 1.3 m/s 0.0 mm 13.5° 1012.6 hPa 1.4 m/s
11:00 15.8° 1013.9 hPa 2.3 m/s 0.0 mm 15.6° 1012.1 hPa 2.2 m/s 57.2 mm 17.4° 1014.1 hPa 2.0 m/s 0.0 mm 13.9° 1012.8 hPa 1.3 m/s
14:00 19.8° 1013.1 hPa 2.3 m/s 0.0 mm 20.0° 1011.0 hPa 2.1 m/s 57.2 mm 20.6° 1013.4 hPa 2.1 m/s 0.0 mm 15.8° 1012.6 hPa 1.8 m/s
17:00 21.3° 1012.3 hPa 2.1 m/s 0.0 mm 21.7° 1011.0 hPa 2.8 m/s 57.2 mm 21.2° 1012.6 hPa 2.0 m/s 0.0 mm 18.0° 1012.5 hPa 2.5 m/s
20:00 20.5° 1012.3 hPa 2.9 m/s 0.0 mm 21.1° 1011.2 hPa 3.6 m/s 57.2 mm 20.4° 1012.6 hPa 2.7 m/s 0.0 mm 15.9° 1012.9 hPa 1.4 m/s
23:00 18.0° 1012.3 hPa 3.2 m/s 57.2 mm 18.0° 1012.3 hPa 3.2 m/s 57.2 mm 13.8° 1013.6 hPa 0.7 m/s
 06:16     21:23    Daglengte: 15:07 Woensdag 04 Aug
02:00 15.8° 1012.7 hPa 3.1 m/s 57.2 mm 15.8° 1012.7 hPa 3.1 m/s 57.2 mm 13.6° 1013.1 hPa 0.9 m/s
05:00 13.2° 1012.2 hPa 0.9 m/s 19.7 mm 13.2° 1012.2 hPa 0.9 m/s 19.7 mm
08:00 13.4° 1013.0 hPa 1.5 m/s 20.2 mm 13.4° 1013.0 hPa 1.5 m/s 20.2 mm
11:00 14.7° 1013.8 hPa 1.9 m/s 20.4 mm 14.7° 1013.8 hPa 1.9 m/s 20.4 mm
14:00 16.6° 1014.0 hPa 2.3 m/s 21.0 mm 16.6° 1014.0 hPa 2.3 m/s 21.0 mm
17:00 16.2° 1014.6 hPa 1.2 m/s 21.1 mm 16.2° 1014.6 hPa 1.2 m/s 21.1 mm
20:00 16.4° 1014.5 hPa 1.2 m/s 21.8 mm 16.4° 1014.5 hPa 1.2 m/s 21.8 mm
23:00 13.3° 1015.3 hPa 0.2 m/s 22.0 mm 13.3° 1015.3 hPa 0.2 m/s 22.0 mm
 06:18     21:21    Daglengte: 15:03 Donderdag 05 Aug
02:00 12.2° 1014.9 hPa 1.8 m/s 22.0 mm 12.2° 1014.9 hPa 1.8 m/s 22.0 mm
05:00 11.3° 1013.7 hPa 2.5 m/s 22.0 mm 11.3° 1013.7 hPa 2.5 m/s 22.0 mm
08:00 12.3° 1012.6 hPa 3.0 m/s 22.0 mm 12.3° 1012.6 hPa 3.0 m/s 22.0 mm
11:00 15.4° 1011.3 hPa 4.3 m/s 22.0 mm 15.4° 1011.3 hPa 4.3 m/s 22.0 mm
14:00 17.3° 1009.4 hPa 5.4 m/s 22.3 mm 17.3° 1009.4 hPa 5.4 m/s 22.3 mm
17:00 14.4° 1007.5 hPa 5.1 m/s 23.9 mm 14.4° 1007.5 hPa 5.1 m/s 23.9 mm
20:00 13.3° 1005.4 hPa 5.8 m/s 25.2 mm 13.3° 1005.4 hPa 5.8 m/s 25.2 mm
23:00 14.0° 1004.1 hPa 5.6 m/s 25.4 mm 14.0° 1004.1 hPa 5.6 m/s 25.4 mm
 06:19     21:19    Daglengte: 15:00 Vrijdag 06 Aug
02:00 14.4° 1003.2 hPa 5.1 m/s 26.0 mm 14.4° 1003.2 hPa 5.1 m/s 26.0 mm
05:00 13.6° 1002.4 hPa 6.1 m/s 26.1 mm 13.6° 1002.4 hPa 6.1 m/s 26.1 mm
08:00 14.1° 1001.0 hPa 7.2 m/s 30.1 mm 14.1° 1001.0 hPa 7.2 m/s 30.1 mm
11:00 14.7° 1001.6 hPa 8.4 m/s 35.3 mm 14.7° 1001.6 hPa 8.4 m/s 35.3 mm
14:00 15.9° 1002.5 hPa 8.2 m/s 35.8 mm 15.9° 1002.5 hPa 8.2 m/s 35.8 mm
17:00 17.4° 1003.1 hPa 7.5 m/s 37.0 mm 17.4° 1003.1 hPa 7.5 m/s 37.0 mm
20:00 17.0° 1005.0 hPa 7.6 m/s 38.1 mm 17.0° 1005.0 hPa 7.6 m/s 38.1 mm
23:00 14.4° 1007.0 hPa 6.2 m/s 38.1 mm 14.4° 1007.0 hPa 6.2 m/s 38.1 mm
 06:21     21:18    Daglengte: 14:57 Zaterdag 07 Aug
02:00 13.2° 1008.2 hPa 6.0 m/s 38.1 mm 13.2° 1008.2 hPa 6.0 m/s 38.1 mm
05:00 13.0° 1008.7 hPa 5.3 m/s 38.1 mm 13.0° 1008.7 hPa 5.3 m/s 38.1 mm
08:00 13.9° 1009.2 hPa 4.8 m/s 38.1 mm 13.9° 1009.2 hPa 4.8 m/s 38.1 mm
11:00 17.4° 1009.6 hPa 5.6 m/s 38.1 mm 17.4° 1009.6 hPa 5.6 m/s 38.1 mm
14:00 20.0° 1009.2 hPa 5.5 m/s 38.2 mm 20.0° 1009.2 hPa 5.5 m/s 38.2 mm
17:00 20.2° 1008.8 hPa 4.1 m/s 38.2 mm 20.2° 1008.8 hPa 4.1 m/s 38.2 mm
20:00 18.5° 1008.3 hPa 3.1 m/s 38.2 mm 18.5° 1008.3 hPa 3.1 m/s 38.2 mm
23:00 17.2° 1008.4 hPa 3.6 m/s 38.3 mm 17.2° 1008.4 hPa 3.6 m/s 38.3 mm
 06:22     21:16    Daglengte: 14:54 Zondag 08 Aug
02:00 16.6° 1008.0 hPa 4.2 m/s 38.6 mm 16.6° 1008.0 hPa 4.2 m/s 38.6 mm
08:00 16.2° 1007.4 hPa 4.6 m/s 51.8 mm 16.2° 1007.4 hPa 4.6 m/s 51.8 mm
14:00 21.1° 1009.6 hPa 9.3 m/s 52.0 mm 21.1° 1009.6 hPa 9.3 m/s 52.0 mm
20:00 16.0° 1011.3 hPa 8.6 m/s 55.1 mm 16.0° 1011.3 hPa 8.6 m/s 55.1 mm
 06:24     21:14    Daglengte: 14:50 Maandag 09 Aug
02:00 15.0° 1015.1 hPa 8.5 m/s 55.1 mm 15.0° 1015.1 hPa 8.5 m/s 55.1 mm
08:00 14.9° 1017.6 hPa 7.1 m/s 55.3 mm 14.9° 1017.6 hPa 7.1 m/s 55.3 mm
14:00 18.1° 1020.4 hPa 6.3 m/s 57.1 mm 18.1° 1020.4 hPa 6.3 m/s 57.1 mm
20:00 16.9° 1022.5 hPa 3.7 m/s 57.9 mm 16.9° 1022.5 hPa 3.7 m/s 57.9 mm
 06:25     21:12    Daglengte: 14:47 Dinsdag 10 Aug
02:00 13.2° 1024.0 hPa 4.4 m/s 57.9 mm 13.2° 1024.0 hPa 4.4 m/s 57.9 mm
08:00 13.2° 1024.1 hPa 3.6 m/s 57.9 mm 13.2° 1024.1 hPa 3.6 m/s 57.9 mm
14:00 19.2° 1024.1 hPa 4.3 m/s 58.4 mm 19.2° 1024.1 hPa 4.3 m/s 58.4 mm
20:00 19.8° 1020.1 hPa 2.8 m/s 0.3 mm
 06:27     21:10    Daglengte: 14:43 Woensdag 11 Aug
02:00 14.4° 1021.2 hPa 1.3 m/s 0.1 mm
08:00 14.7° 1021.0 hPa 1.4 m/s 0.0 mm
14:00 21.9° 1020.5 hPa 1.7 m/s 0.4 mm
20:00 20.0° 1020.1 hPa 2.1 m/s 0.4 mm
 06:28     21:08    Daglengte: 14:40 Donderdag 12 Aug
02:00 15.1° 1020.8 hPa 0.3 m/s 0.1 mm
08:00 15.2° 1020.4 hPa 0.5 m/s 0.2 mm
14:00 22.5° 1019.9 hPa 0.9 m/s 0.3 mm
20:00 21.1° 1019.5 hPa 1.9 m/s 0.4 mm
 06:30     21:06    Daglengte: 14:36 Vrijdag 13 Aug
02:00 16.1° 1020.2 hPa 0.4 m/s 0.0 mm
08:00 16.0° 1020.1 hPa 1.1 m/s 0.2 mm
14:00 22.8° 1019.9 hPa 1.4 m/s 0.4 mm
20:00 21.0° 1019.1 hPa 1.2 m/s 0.2 mm
 06:31     21:05    Daglengte: 14:34 Zaterdag 14 Aug
02:00 16.3° 1019.7 hPa 0.6 m/s 0.4 mm
08:00 16.0° 1019.5 hPa 0.8 m/s 0.3 mm
14:00 22.6° 1019.0 hPa 1.4 m/s 0.5 mm
20:00 20.9° 1018.3 hPa 1.7 m/s 0.5 mm
 06:33     21:03    Daglengte: 14:30 Zondag 15 Aug
02:00 16.0° 1018.9 hPa 0.6 m/s 0.2 mm
08:00 15.8° 1018.5 hPa 1.3 m/s 0.2 mm
14:00 22.3° 1018.2 hPa 2.2 m/s 0.3 mm
20:00 20.4° 1017.8 hPa 2.4 m/s 0.5 mm
FMI Hirlam - 7.5 km EWN WRFDA - 12 km DWD ICON - 7 km GFS - 25 km Basiskaart






























































Updatetijd (Europe/Amsterdam) Resolutie Lengte Stap
FMI Hirlam 19:00, 01:00, 07:00, 13:00 7.5 km 49h 1h
EWN WRFDA 22:15, 04:15, 10:15, 16:15 12 km 73h 1h
DWD ICON 18:15, 00:15, 06:15, 12:15 7 km 75h 1h
GFS 20:15, 02:15, 08:15, 14:15 25 km 237h 3h
30+ mm
25-30 mm
20-25 mm
15-20 mm
10-15 mm
6-10 mm
4-6 mm
2-4 mm
1-2 mm
0.5-1 mm
0.2-0.5 mm
0.1-0.2 mm
30+ mm
25-30 mm
20-25 mm
15-20 mm
10-15 mm
6-10 mm
4-6 mm
2-4 mm
1-2 mm
0.5-1 mm
0.2-0.5 mm
0.1-0.2 mm
Sneeuwval
Natte sneeuw
Hagel
Vorst
30+ mm
25-30 mm
20-25 mm
15-20 mm
10-15 mm
6-10 mm
4-6 mm
2-4 mm
1-2 mm
0.5-1 mm
0.2-0.5 mm
0.1-0.2 mm
Sneeuwval
Natte sneeuw
Hagel
Vorst
Onweer
50 mm
40 mm
30 mm
26 mm
22 mm
18 mm
14 mm
10 mm
9 mm
8 mm
7 mm
6 mm
5 mm
4.5 mm
4 mm</